Regional Weather Roundup
Issued by NWS

Home | Current Version | Previous Version | Graphics & Text | Print | Product List | Glossary On
Versions: 1 2 3 4 5 6 7 8 9 10 11 12 13 14 15 16 17 18 19 20 21 22 23 24 25 26 27 28 29 30 31 32 33 34 35 36 37 38 39 40 41 42 43 44 45 46 47 48 49 50
000
ASUS43 KIND 222259
RWRIN

WEATHER ROUNDUP FOR INDIANA
NATIONAL WEATHER SERVICE INDIANAPOLIS IN
700 PM EDT WED MAR 22 2017

NOTE: "FAIR" INDICATES FEW OR NO CLOUDS BELOW 12,000 FEET WITH NO
SIGNIFICANT WEATHER AND/OR OBSTRUCTIONS TO VISIBILITY.

* - STATION DOES NOT REPORT WEATHER SUCH AS PRECIPITATION OR FOG.

+ - STATION NOT QUALITY CONTROLLED BY THE NATIONAL WEATHER SERVICE.
    USE DATA WITH CAUTION...ESPECIALLY DEWPOINT AND RELATIVE
    HUMIDITY OBSERVATIONS.

INZ001>003-010>013-019-020-230000-
NORTHWEST INDIANA

CITY           SKY/WX    TMP DP  RH WIND       PRES   REMARKS
GARY /AIRPORT/ PTSUNNY   32  18  55 NE9       30.53F WCI  24
KNOX *+        SUNNY     37 -17   9 E9        30.49S
MICHIGAN CITY+ SUNNY     32  21  64 N7        30.51F WCI  26
MONTICELLO +   SUNNY     38  15  40 E7        30.47F
RENSSELAER +     N/A     37  16  41 E12       30.48S

$$

LMZ046-743>745-230000-
SOUTHERN LAKE MICHIGAN

STATION/POSITION TIME  TEMP    WIND        PRES    WAVE
                       AIR SEA DIR/SP/G            HT
                 (UTC) (F)     (DEG/KT/KT) (MB)    (FT)
BURNS HARBOR     2240   30      40/ 11/ 13 1033.5F
MICHIGAN CITY    2230   29      30/ 10/ 12   N/A

$$

INZ004-005-014>016-021>024-230000-
NORTH CENTRAL INDIANA

CITY           SKY/WX    TMP DP  RH WIND       PRES   REMARKS
ELKHART        SUNNY     37  10  32 NE3       30.50F
GOSHEN         CLEAR     37  12  35 E6        30.50F
SOUTH BEND     SUNNY     37  11  34 E7        30.50F

$$

INZ006>009-017-018-025>027-230000-
NORTHEAST INDIANA

CITY           SKY/WX    TMP DP  RH WIND       PRES   REMARKS
ANGOLA *+      CLEAR     36  16  44 CALM      30.50S
FORT WAYNE     PTCLDY    36  15  42 E12       30.50F
KENDALLVILLE + CLEAR     35  11  36 E5        30.50S WCI  31

$$

INZ028-029-035-036-043>045-051>053-230000-
WEST CENTRAL INDIANA

CITY           SKY/WX    TMP DP  RH WIND       PRES   REMARKS
CRAWFORDSVL +  SUNNY     36  22  55 NE10      30.46S
GREENCASTLE +  SUNNY     39  18  41 E10       30.44F
LAFAYETTE      SUNNY     37  18  46 E14       30.47F
TERRE HAUTE    SUNNY     42  16  34 E14       30.43F

$$

INZ030>032-037>040-046>048-054>057-064-065-230000-
CENTRAL INDIANA

CITY           SKY/WX    TMP DP  RH WIND       PRES   REMARKS
COLUMBUS       SUNNY     41  18  38 E13       30.45S
GREENWOOD *+   SUNNY     40  21  45 NE12      30.45F
INDIANAPOLIS   MOSUNNY   39  17  41 E17       30.45S
-EAGLE CREEK   SUNNY     39  16  39 E12       30.45S
KOKOMO +       SUNNY     36  20  52 E12       30.49F
SHELBYVILLE    SUNNY     41  19  41 NE13      30.45S

$$

INZ033-034-041-042-049-050-058-059-230000-
EAST CENTRAL INDIANA

CITY           SKY/WX    TMP DP  RH WIND       PRES   REMARKS
MUNCIE         CLEAR     38  21  50 NE12      30.48S
RICHMOND +     CLEAR     36  21  55 NE13      30.46S

$$

INZ060-061-067>069-081>083-085>088-230000-
SOUTHWEST INDIANA

CITY           SKY/WX    TMP DP  RH WIND       PRES   REMARKS
EVANSVILLE     SUNNY     51  19  28 NE12      30.38R
HUNTINGBURG *+ SUNNY     46  17  31 NE13      30.39R

$$

INZ062-063-066-070>080-084-089>092-230000-
SOUTH CENTRAL AND SOUTHEAST INDIANA

CITY           SKY/WX    TMP DP  RH WIND       PRES   REMARKS
BLOOMINGTON    SUNNY     42  16  34 NE10      30.41F
MADISON *+     SUNNY     43  16  33 NE12      30.43S

$$




USA.gov is the U.S. government's official web portal to all federal, state and local government web resources and services.